#timestamp,LO_Frequency,Hit,Temp,Hum 
1479646815.9,286046942.4,N,0.0,0.0
1479646835.7,286046942.6,N,0.0,0.0
1479646855.5,286046944.9,N,0.0,0.0
1479646875.4,286046942.9,N,0.0,0.0
1479646895.2,286046943.3,N,0.0,0.0
1479646915.1,286046942.9,N,0.0,0.0
1479646916.0,286046942.9,N,0.0,0.0
1479646935.8,286046942.1,N,0.0,0.0
1479646955.6,286046942.3,N,0.0,0.0
1479646975.5,286046943.0,N,0.0,0.0
1479646995.3,286046943.4,N,0.0,0.0
1479647015.1,286046942.1,N,0.0,0.0
1479647035.9,286046942.5,N,0.0,0.0
1479647055.7,286046942.4,N,0.0,0.0
1479647075.6,286046943.0,N,0.0,0.0
1479647095.4,286046942.3,N,0.0,0.0
1479647115.2,286046942.9,N,0.0,0.0
1479647135.1,286046943.4,N,0.0,0.0
1479647136.0,286046943.4,N,0.0,0.0
1479647155.8,286046942.7,N,0.0,0.0
1479647175.7,286046945.2,N,0.0,0.0
1479647195.5,286046943.3,N,0.0,0.0
1479647215.3,286046942.2,N,0.0,0.0
1479647235.2,286046942.8,N,0.0,0.0
1479647255.0,286046942.2,N,0.0,0.0
1479647255.9,286046942.2,N,0.0,0.0
1479647275.8,286046945.1,N,0.0,0.0
1479647295.6,286046944.6,N,0.0,0.0
1479647315.4,286046944.7,N,0.0,0.0
1479647335.3,286046944.4,N,0.0,0.0
1479647355.1,286046942.4,N,0.0,0.0
1479647375.8,286046942.6,N,0.0,0.0
1479647395.7,286046945.2,N,0.0,0.0
1479647415.5,286046942.4,N,0.0,0.0
1479647435.4,286046943.1,N,0.0,0.0
1479647455.2,286046943.4,N,0.0,0.0
1479647475.0,286046943.4,N,0.0,0.0
1479647475.9,286046943.4,N,0.0,0.0
1479647495.8,286046945.2,N,0.0,0.0
1479647515.6,286046942.3,N,0.0,0.0
1479647535.4,286046942.3,N,0.0,0.0
1479647555.3,286046942.2,N,0.0,0.0
1479647575.1,286046945.1,N,0.0,0.0
1479647595.9,286046940.5,N,0.0,0.0
1479647615.7,286046941.1,N,0.0,0.0
1479647635.5,286046940.8,N,0.0,0.0
1479647655.4,286046943.3,N,0.0,0.0
1479647675.2,286046943.1,N,0.0,0.0
1479647695.0,286046943.1,N,0.0,0.0
1479647695.9,286046943.1,N,0.0,0.0
1479647715.8,286046943.2,N,0.0,0.0
1479647735.6,286046943.1,N,0.0,0.0
1479647755.5,286046941.1,N,0.0,0.0
1479647775.3,286046941.6,N,0.0,0.0
1479647795.1,286046940.2,N,0.0,0.0
1479647815.9,286046941.6,N,0.0,0.0
1479647835.7,286046938.9,N,0.0,0.0
1479647855.6,286046939.0,N,0.0,0.0
1479647875.4,286046941.6,N,0.0,0.0
1479647895.2,286046940.8,N,0.0,0.0
1479647915.1,286046939.0,N,0.0,0.0
1479647916.0,286046939.0,N,0.0,0.0
1479647935.8,286046941.6,N,0.0,0.0
1479647955.6,286046938.9,N,0.0,0.0
1479647975.5,286046941.8,N,0.0,0.0
1479647995.3,286046941.4,N,0.0,0.0
1479648015.2,286046941.0,N,0.0,0.0
1479648035.9,286046941.3,N,0.0,0.0
1479648055.7,286046943.2,N,0.0,0.0
1479648075.6,286046944.9,N,0.0,0.0
1479648095.4,286046944.7,N,0.0,0.0
1479648115.2,286046942.1,N,0.0,0.0
1479648135.1,286046942.5,N,0.0,0.0
1479648136.0,286046942.5,N,0.0,0.0
1479648155.8,286046942.7,N,0.0,0.0
1479648175.7,286046944.7,N,0.0,0.0
1479648195.5,286046943.7,N,0.0,0.0
1479648215.3,286046948.4,N,0.0,0.0
1479648235.2,286046946.5,N,0.0,0.0
1479648255.0,286046946.5,N,0.0,0.0
1479648255.9,286046946.5,N,0.0,0.0
1479648275.8,286046946.3,N,0.0,0.0
1479648295.6,286046946.6,N,0.0,0.0
1479648315.4,286046943.7,N,0.0,0.0
1479648335.3,286046946.8,N,0.0,0.0
1479648355.1,286046946.4,N,0.0,0.0
1479648375.8,286046948.3,N,0.0,0.0
1479648395.7,286046948.2,N,0.0,0.0
1479648415.5,286046948.4,N,0.0,0.0
1479648435.4,286046945.7,N,0.0,0.0
1479648455.2,286046945.7,N,0.0,0.0
1479648475.0,286046945.9,N,0.0,0.0
1479648475.9,286046945.9,N,0.0,0.0
1479648495.8,286046946.1,N,0.0,0.0
1479648515.6,286046944.2,N,0.0,0.0
1479648535.4,286046946.3,N,0.0,0.0
1479648555.3,286046946.4,N,0.0,0.0
1479648575.1,286046946.8,N,0.0,0.0
1479648595.9,286046947.8,N,0.0,0.0
1479648615.7,286046948.6,N,0.0,0.0
1479648635.5,286046949.5,N,0.0,0.0
1479648655.4,286046950.0,N,0.0,0.0
1479648675.2,286046947.5,N,0.0,0.0
1479648695.0,286046949.4,N,0.0,0.0
1479648696.0,286046949.4,N,0.0,0.0
1479648715.8,286046950.2,N,0.0,0.0
1479648735.6,286046954.6,N,0.0,0.0
1479648755.5,286046953.0,N,0.0,0.0
1479648775.3,286046950.2,N,0.0,0.0
1479648795.1,286046951.5,N,0.0,0.0
1479648815.9,286046951.4,N,0.0,0.0
1479648835.7,286046950.9,N,0.0,0.0
1479648855.6,286046954.0,N,0.0,0.0
1479648875.4,286046953.8,N,0.0,0.0
1479648895.2,286046957.6,N,0.0,0.0
1479648915.1,286046956.8,N,0.0,0.0
1479648916.0,286046956.8,N,0.0,0.0
1479648935.8,286046957.3,N,0.0,0.0
1479648955.6,286046954.9,N,0.0,0.0
1479648975.5,286046955.4,N,0.0,0.0
1479648995.3,286046957.7,N,0.0,0.0
1479649015.2,286046957.3,N,0.0,0.0
1479649035.9,286046955.1,N,0.0,0.0
1479649055.7,286046956.0,N,0.0,0.0
1479649075.6,286046953.3,N,0.0,0.0
1479649095.4,286046957.5,N,0.0,0.0
1479649115.3,286046958.3,N,0.0,0.0
1479649135.1,286046958.5,N,0.0,0.0
1479649136.0,286046958.5,N,0.0,0.0
1479649155.8,286046957.5,N,0.0,0.0
1479649175.7,286046957.1,N,0.0,0.0
1479649195.5,286046955.0,N,0.0,0.0
1479649215.3,286046959.5,N,0.0,0.0
1479649235.2,286046957.2,N,0.0,0.0
1479649255.0,286046956.7,N,0.0,0.0
1479649255.9,286046956.7,N,0.0,0.0
1479649275.8,286046958.9,N,0.0,0.0
1479649295.6,286046962.8,N,0.0,0.0
1479649315.4,286046961.9,N,0.0,0.0
1479649335.3,286046960.1,N,0.0,0.0
1479649355.1,286046958.3,N,0.0,0.0
1479649375.9,286046958.9,N,0.0,0.0
1479649395.7,286046959.0,N,0.0,0.0
1479649415.5,286046960.4,N,0.0,0.0
1479649435.4,286046962.1,N,0.0,0.0
1479649455.2,286046962.4,N,0.0,0.0
1479649475.0,286046962.4,N,0.0,0.0
1479649475.9,286046962.4,N,0.0,0.0
1479649495.8,286046960.0,N,0.0,0.0
1479649515.6,286046959.7,N,0.0,0.0
1479649535.5,286046961.2,N,0.0,0.0
1479649555.3,286046958.6,N,0.0,0.0
1479649575.1,286046961.2,N,0.0,0.0
1479649595.9,286046959.1,N,0.0,0.0
1479649615.7,286046958.3,N,0.0,0.0
1479649635.5,286046958.2,N,0.0,0.0
1479649655.4,286046961.2,N,0.0,0.0
1479649675.2,286046958.2,N,0.0,0.0
1479649695.1,286046961.1,N,0.0,0.0
1479649696.0,286046961.1,N,0.0,0.0
1479649715.8,286046958.2,N,0.0,0.0
1479649735.6,286046960.8,N,0.0,0.0
1479649755.5,286046958.6,N,0.0,0.0
1479649775.3,286046962.7,N,0.0,0.0
1479649795.2,286046962.6,N,0.0,0.0
1479649815.9,286046961.9,N,0.0,0.0
1479649835.7,286046961.6,N,0.0,0.0
1479649855.6,286046964.1,N,0.0,0.0
1479649875.4,286046965.9,N,0.0,0.0
1479649895.2,286046964.7,N,0.0,0.0
1479649915.1,286046963.0,N,0.0,0.0
1479649916.0,286046963.0,N,0.0,0.0
1479649935.8,286046963.0,N,0.0,0.0
1479649955.7,286046967.1,N,0.0,0.0
1479649975.5,286046970.8,N,0.0,0.0
1479649995.3,286046966.1,N,0.0,0.0
1479650015.2,286046967.3,N,0.0,0.0
1479650035.0,286046964.5,N,0.0,0.0
1479650035.9,286046964.5,N,0.0,0.0
1479650055.7,286046964.5,N,0.0,0.0
1479650075.6,286046965.1,N,0.0,0.0
1479650095.4,286046968.1,N,0.0,0.0
1479650115.3,286046969.9,N,0.0,0.0
1479650135.1,286046969.6,N,0.0,0.0
1479650155.8,286046970.1,N,0.0,0.0
1479650175.7,286046969.5,N,0.0,0.0
1479650195.5,286046971.7,N,0.0,0.0
1479650215.4,286046971.8,N,0.0,0.0
1479650235.2,286046969.8,N,0.0,0.0
1479650255.0,286046969.3,N,0.0,0.0
1479650255.9,286046969.3,N,0.0,0.0
1479650275.8,286046972.4,N,0.0,0.0
1479650295.6,286046969.4,N,0.0,0.0
1479650315.4,286046969.7,N,0.0,0.0
1479650335.3,286046969.9,N,0.0,0.0
1479650355.1,286046972.0,N,0.0,0.0
1479650375.9,286046973.5,N,0.0,0.0
1479650395.7,286046971.1,N,0.0,0.0
